[[{"header":{"parameterUnit":"m.s-1","parameterCategory":1,"la1":30.2991,"la2":30.254,"lo1":-89.0895,"lo2":-89.0444,"dy":0.0017,"dx":0.0017,"nx":28,"ny":28,"refTime":"2023-08-20T09:00:00:Z","depth":0,"parameterNumber":2,"parameterNumberName":"U-component_of_WINDS"},"data":[0,0,0,0,0,0,0,0,0,0,0,0,0,0,0,0,0,0,0,0,0,0,0,0,0,0,0,0,0,0,0,0,0,0,0,0,0,0,0,0,0,0,0,0,0,0,0,0,0,0,0,0,0,0,0,0,0,0,0.6354,0.6353,0,0.6282,0.6281,0.6281,0.6196,0.6195,0.6193,0.6192,0.612,0.6119,0.6118,0,0,0,0,0,0,0,0,0,0,0,0,0,0.6418,0.6417,0.6354,0.6353,0.6352,0.6282,0.6281,0.628,0.6196,0.6195,0.6193,0.6192,0.612,0.6119,0.6118,0,0,0,0,0,0,0,0,0,0,0,0,0,0.6373,0.6417,0.6354,0.6302,0.6296,0.6283,0.6281,0.628,0.6197,0.6195,0.6193,0.6191,0.612,0.6119,0.6118,0.615,0,0,0.6115,0.6114,0,0,0,0,0,0,0,0,0.6375,0.637,0.631,0.6305,0.6299,0.6246,0.6277,0.6237,0.6197,0.6235,0.6192,0.619,0.6163,0.6159,0.6149,0.6147,0.6144,0.6115,0.6114,0.6114,0.6113,0,0,0,0,0,0,0,0.6379,0.6373,0.6326,0.631,0.6303,0.6282,0.6273,0.6269,0.6211,0.6231,0.6225,0.6217,0.616,0.6151,0.6147,0.6143,0.6115,0.6114,0.6113,0.6113,0.616,0.6162,0,0,0,0,0,0,0.6389,0.6376,0.6328,0.6323,0.6333,0.6282,0.6273,0.6265,0.6211,0.62,0.6219,0.6214,0.6154,0.6149,0.6144,0.6176,0.6114,0.6113,0.6112,0.6158,0.616,0.6162,0,0,0,0,0,0,0.6391,0.6386,0.6331,0.6348,0.6339,0.6283,0.6276,0.6265,0.6255,0.6202,0.6191,0.622,0.6152,0.6146,0.6149,0.6173,0.6112,0.6111,0.6156,0.6159,0.6161,0.6242,0,0,0,0,0,0,0.6393,0.6387,0.6399,0.6349,0.6339,0.6337,0.6277,0.6265,0.6254,0.6246,0.62,0.619,0.615,0.6151,0.6148,0.617,0.611,0.6153,0.6157,0.616,0.6237,0.6247,0.6256,0,0,0,0,0,0.6396,0.6425,0.64,0.6395,0.6352,0.6339,0.6333,0.6285,0.6256,0.6267,0.6232,0.6192,0.6171,0.6152,0.6148,0.617,0.6152,0.6156,0.616,0.6232,0.6245,0.6256,0,0,0,0,0,0,0.648,0.6418,0.6389,0.6403,0.6377,0.6324,0.6337,0.63,0.6282,0.6276,0.6218,0.6208,0.6217,0.6194,0.6174,0.6197,0.6155,0.6159,0.6212,0.6223,0.6232,0.6237,0.6109,0,0,0,0,0,0.6501,0.6494,0.644,0.6458,0.6446,0.6394,0.6386,0.6352,0.6322,0.631,0.6276,0.6249,0.6235,0.6228,0.6213,0.6233,0.6221,0.6246,0.6256,0.6264,0.6268,0.6274,0.6284,0.6176,0.6176,0.6176,0,0,0.6542,0.6507,0.6507,0.6474,0.6449,0.6443,0.6385,0.6382,0.6377,0.631,0.631,0.6284,0.6249,0.626,0.6263,0.6241,0.6295,0.627,0.6276,0.6275,0.6279,0.629,0.6299,0.6179,0.6179,0.6178,0,0,0.6615,0.6589,0.6599,0.6576,0.6539,0.6504,0.6506,0.6459,0.6439,0.6438,0.6386,0.638,0.6359,0.6336,0.6321,0.6384,0.6345,0.6381,0.643,0.6437,0.6446,0.6453,0.6473,0.6481,0.6385,0.6385,0.6385,0,0.6672,0.6661,0.661,0.6609,0.6595,0.6533,0.6543,0.6523,0.6483,0.6475,0.6451,0.6421,0.6394,0.6398,0.6413,0.6404,0.6404,0.6385,0.6449,0.6455,0.6461,0.648,0.6488,0.6389,0.6389,0.6388,0.6388,0,0.6731,0.6725,0.6738,0.67,0.6688,0.6693,0.6641,0.6635,0.6601,0.6569,0.6568,0.6533,0.6508,0.6507,0.6475,0.6505,0.6492,0.6459,0.6416,0.6477,0.6493,0.65,0.6395,0.6394,0.6393,0.6392,0,0,0.6855,0.6788,0.6794,0.6775,0.6729,0.6723,0.6724,0.67,0.6695,0.667,0.6668,0.6651,0.662,0.6603,0.6568,0.6574,0.6623,0.654,0.6538,0.6555,0.6652,0.6677,0.6686,0.6598,0.6599,0.66,0.6655,0,0.6918,0.6917,0.687,0.6881,0.6873,0.6814,0.6815,0.6787,0.6756,0.6745,0.6711,0.6699,0.6659,0.6649,0.6652,0.6617,0.6642,0.6612,0.6595,0.6595,0.6604,0.6695,0.6721,0.6774,0.6661,0.6662,0.6663,0,0.6992,0.6969,0.698,0.6932,0.6927,0.6929,0.6902,0.6892,0.6858,0.6835,0.6817,0.6776,0.6773,0.6733,0.6727,0.6708,0.6698,0.6679,0.668,0.6676,0.6632,0.6691,0.679,0.6798,0.6673,0.6672,0.6671,0,0.7079,0.7052,0.7054,0.704,0.6985,0.6987,0.6964,0.6928,0.6916,0.6892,0.6883,0.6861,0.6848,0.683,0.6784,0.6759,0.6783,0.6739,0.6762,0.6764,0.6769,0.6769,0.6867,0.6766,0.6766,0.6765,0.6765,0,0.7153,0.7162,0.7092,0.7093,0.71,0.7046,0.7054,0.7026,0.6994,0.6988,0.6936,0.6931,0.6871,0.6859,0.6823,0.6822,0.6818,0.6798,0.6788,0.6802,0.6804,0.6794,0.6788,0.6767,0.6767,0.6767,0.6766,0,0.7251,0.7205,0.7203,0.7151,0.7137,0.7145,0.7099,0.7098,0.7064,0.7056,0.7052,0.6998,0.6981,0.6933,0.6905,0.688,0.689,0.6872,0.6901,0.6894,0.692,0.6917,0.7012,0.7021,0.6917,0.6918,0.6919,0,0.7301,0.7306,0.7253,0.7245,0.7224,0.7213,0.7199,0.7146,0.7135,0.7095,0.7098,0.7077,0.7058,0.7034,0.6992,0.6969,0.6949,0.6984,0.6945,0.6959,0.6948,0.6947,0.6947,0.6992,0.6994,0.6995,0.6996,0,0.7394,0.737,0.7354,0.7329,0.7314,0.7292,0.7267,0.7263,0.7203,0.7193,0.7174,0.7159,0.7129,0.7108,0.7079,0.7054,0.7015,0.7008,0.7012,0.7026,0.7042,0.7031,0.6922,0.7006,0.7005,0.7004,0.7004,0.7003,0.7468,0.7469,0.7431,0.7414,0.7389,0.7366,0.7362,0.7326,0.731,0.7282,0.7251,0.7236,0.72,0.7156,0.7134,0.7121,0.71,0.7107,0.7108,0.711,0.7115,0.7045,0.7116,0.7115,0.7115,0.7115,0.7115,0,0.7556,0.7529,0.7514,0.7479,0.7465,0.7429,0.7399,0.739,0.7377,0.7347,0.7328,0.7307,0.7286,0.7242,0.7217,0.7214,0.7196,0.721,0.7209,0.7203,0.7136,0.7135,0.7225,0.7225,0.7225,0.7225,0.7225,0.7225,0.7601,0.7599,0.7571,0.7557,0.7529,0.7514,0.7499,0.7478,0.7453,0.7431,0.7414,0.7385,0.7349,0.732,0.7299,0.7287,0.7279,0.7299,0.728,0.7219,0.7208,0.7198,0.7196,0.7298,0.7298,0.7348,0.7348,0.7349]},{"header":{"parameterUnit":"m.s-1","parameterCategory":1,"la1":30.2991,"la2":30.254,"lo1":-89.0895,"lo2":-89.0444,"dy":0.0017,"dx":0.0017,"nx":28,"ny":28,"refTime":"2023-08-20T09:00:00:Z","depth":0,"parameterNumber":3,"parameterNumberName":"V-component_of_WINDS"},"data":[0,0,0,0,0,0,0,0,0,0,0,0,0,0,0,0,0,0,0,0,0,0,0,0,0,0,0,0,0,0,0,0,0,0,0,0,0,0,0,0,0,0,0,0,0,0,0,0,0,0,0,0,0,0,0,0,0,0,2.3567,2.3566,0,2.349,2.349,2.3489,2.3429,2.3428,2.3428,2.3427,2.3343,2.3341,2.334,0,0,0,0,0,0,0,0,0,0,0,0,0,2.3655,2.3654,2.3567,2.3566,2.3565,2.3491,2.3489,2.3488,2.3429,2.3428,2.3428,2.3427,2.3344,2.3342,2.334,0,0,0,0,0,0,0,0,0,0,0,0,0,2.3602,2.3654,2.3567,2.3526,2.3522,2.3491,2.3489,2.3488,2.3429,2.3428,2.3427,2.3427,2.3344,2.3342,2.3339,2.334,0,0,2.3331,2.333,0,0,0,0,0,0,0,0,2.3605,2.3598,2.3533,2.3529,2.3524,2.3468,2.349,2.3438,2.3429,2.3464,2.3427,2.3426,2.3385,2.3379,2.3366,2.3336,2.3333,2.3331,2.333,2.3329,2.3328,0,0,0,0,0,0,0,2.3609,2.3601,2.3536,2.3532,2.3527,2.351,2.3502,2.348,2.343,2.3461,2.3457,2.3449,2.3382,2.3369,2.3364,2.3332,2.3331,2.3329,2.3327,2.3326,2.3296,2.3297,0,0,0,0,0,0,2.3619,2.3605,2.3539,2.3534,2.3563,2.3509,2.35,2.3487,2.343,2.3421,2.345,2.3446,2.3374,2.3367,2.3361,2.3357,2.3329,2.3326,2.3325,2.3296,2.3296,2.3297,0,0,0,0,0,0,2.3621,2.3614,2.3542,2.3568,2.3558,2.3509,2.3495,2.3486,2.3473,2.3422,2.3412,2.3445,2.3373,2.3364,2.3346,2.3353,2.3325,2.3323,2.3295,2.3296,2.3297,2.3349,0,0,0,0,0,0,2.3624,2.3615,2.3616,2.3569,2.3557,2.353,2.3495,2.3485,2.3469,2.3464,2.3415,2.3406,2.3372,2.335,2.3343,2.3349,2.3321,2.3294,2.3295,2.3296,2.3347,2.3352,2.3357,0,0,0,0,0,2.3628,2.3633,2.3617,2.3609,2.3558,2.3531,2.3523,2.3485,2.347,2.347,2.3437,2.3408,2.3354,2.3349,2.3341,2.3345,2.3293,2.3295,2.3296,2.3344,2.3351,2.3357,0,0,0,0,0,0,2.3681,2.3626,2.3607,2.3598,2.357,2.3521,2.3519,2.3494,2.3468,2.3464,2.3416,2.3405,2.3391,2.3367,2.3362,2.3342,2.3319,2.332,2.3359,2.3365,2.337,2.3375,2.3319,0,0,0,0,0,2.3692,2.3677,2.3629,2.3626,2.3613,2.3569,2.3556,2.3529,2.3497,2.3484,2.3449,2.3417,2.3393,2.3378,2.3353,2.3344,2.333,2.3343,2.3348,2.3352,2.3352,2.3343,2.3347,2.3303,2.3303,2.3303,0,0,2.3714,2.3683,2.3675,2.3636,2.361,2.3593,2.3559,2.3543,2.3529,2.348,2.3461,2.3435,2.3396,2.3381,2.3373,2.336,2.3362,2.3354,2.3358,2.3355,2.3345,2.335,2.3353,2.3304,2.3304,2.3303,0,0,2.3745,2.3721,2.3714,2.369,2.3653,2.3624,2.3623,2.3578,2.3559,2.3539,2.3502,2.3484,2.3444,2.3417,2.3398,2.3419,2.339,2.3412,2.3437,2.3429,2.3433,2.3436,2.3441,2.3444,2.3413,2.3413,2.3413,0,2.3777,2.3752,2.3714,2.37,2.3682,2.364,2.3632,2.361,2.3566,2.3554,2.3541,2.3489,2.3459,2.3437,2.3443,2.343,2.3424,2.3417,2.3436,2.3438,2.344,2.3445,2.3447,2.3416,2.3415,2.3415,2.3415,0,2.3791,2.3774,2.3773,2.3733,2.3716,2.3705,2.3664,2.365,2.3625,2.3597,2.3576,2.354,2.3506,2.3499,2.3474,2.3473,2.3466,2.3445,2.3421,2.3448,2.3451,2.3453,2.342,2.3419,2.3418,2.3417,0,0,2.3852,2.3792,2.3792,2.3773,2.3729,2.3714,2.3701,2.367,2.3658,2.3629,2.3615,2.3582,2.3562,2.3541,2.3512,2.3506,2.3522,2.3485,2.3483,2.3491,2.3516,2.353,2.3533,2.3504,2.3504,2.3504,2.3518,0,2.3874,2.3849,2.3815,2.38,2.3783,2.3743,2.373,2.3701,2.3674,2.3654,2.3624,2.36,2.3577,2.3564,2.3556,2.3522,2.3526,2.3521,2.3487,2.3486,2.3496,2.3535,2.3551,2.3566,2.352,2.352,2.352,0,2.3896,2.3871,2.3856,2.3813,2.3804,2.3794,2.3762,2.3744,2.3709,2.369,2.3667,2.3636,2.3617,2.3597,2.3569,2.3566,2.3551,2.3532,2.3532,2.3525,2.3503,2.3527,2.357,2.3571,2.3522,2.3522,2.3522,0,2.3939,2.3902,2.3887,2.3872,2.3822,2.3816,2.3794,2.3759,2.3742,2.3714,2.3702,2.3671,2.3654,2.363,2.3591,2.358,2.3566,2.3543,2.3547,2.3548,2.3544,2.3544,2.3582,2.3538,2.3538,2.3538,2.3538,0,2.3966,2.3958,2.3906,2.3897,2.3885,2.3845,2.3834,2.3809,2.3778,2.3761,2.3725,2.3709,2.366,2.3639,2.3608,2.3588,2.3581,2.3563,2.3554,2.3565,2.3567,2.3552,2.3549,2.3538,2.3538,2.3538,2.3538,0,2.4012,2.3977,2.3958,2.3913,2.3901,2.3895,2.3855,2.3843,2.3815,2.3794,2.3787,2.3742,2.3714,2.3674,2.3634,2.3613,2.3597,2.3585,2.3609,2.3604,2.3609,2.3608,2.3637,2.3637,2.3596,2.3596,2.3596,0,2.403,2.4023,2.3977,2.3965,2.3945,2.3925,2.3908,2.3868,2.3852,2.3811,2.3804,2.3774,2.3748,2.3706,2.3667,2.3636,2.3621,2.3634,2.3616,2.3626,2.3618,2.3619,2.3617,2.3637,2.3638,2.3638,2.3639,0,2.4066,2.4049,2.4027,2.3999,2.398,2.3956,2.3929,2.392,2.3875,2.3857,2.383,2.381,2.377,2.3739,2.3703,2.3678,2.365,2.3645,2.3644,2.3653,2.3667,2.3657,2.3618,2.3644,2.3643,2.3643,2.3642,2.3642,2.4096,2.4087,2.4054,2.403,2.4007,2.3983,2.397,2.3941,2.3918,2.3883,2.3861,2.3834,2.3798,2.3746,2.3723,2.37,2.3688,2.3687,2.3686,2.3686,2.3688,2.3673,2.3693,2.3693,2.3693,2.3692,2.3692,0,2.4128,2.4105,2.4084,2.4049,2.403,2.4008,2.3977,2.3962,2.394,2.391,2.3885,2.3853,2.3824,2.3784,2.3751,2.374,2.3726,2.3732,2.3731,2.3726,2.3702,2.3705,2.3744,2.3744,2.3744,2.3744,2.3744,2.3744,2.4142,2.4126,2.4105,2.4076,2.4052,2.4027,2.4011,2.3988,2.3964,2.393,2.3906,2.3882,2.3847,2.3811,2.3782,2.3771,2.3759,2.377,2.3754,2.3732,2.3727,2.3723,2.3726,2.3768,2.3768,2.3779,2.3779,2.3779]}]]